Date,TemperatureHighF,TemperatureAvgF,TemperatureLowF,DewpointHighF,DewpointAvgF,DewpointLowF,HumidityHigh,HumidityAvg,HumidityLow,PressureMaxIn,PressureMinIn,WindSpeedMaxMPH,WindSpeedAvgMPH,GustSpeedMaxMPH,PrecipitationSumIn
2013-1-1,41.8,34.6,25.9,34.1,29.8,23.9,95,83,70,29.88,29.76,11,2,17,0.01
2013-1-2,43.9,40.2,36.5,37.0,33.1,31.5,85,76,63,30.34,29.84,13,4,20,0.00
2013-1-3,44.6,40.5,36.8,39.9,35.0,31.1,88,81,71,30.36,30.25,17,7,28,0.06
2013-1-4,50.6,47.1,44.4,46.5,42.7,39.4,94,85,68,30.37,30.11,17,6,22,0.36
2013-1-5,49.8,45.9,41.9,45.8,41.9,38.9,92,86,81,30.29,30.10,19,4,24,0.01
2013-1-6,45.6,43.1,40.9,41.6,40.1,38.6,95,89,80,30.27,30.06,13,4,23,0.07
2013-1-7,44.7,39.4,36.9,42.0,37.5,35.1,95,93,89,30.30,30.13,6,1,9,0.09
2013-1-8,43.1,39.6,34.6,40.4,37.8,33.5,97,93,88,30.27,30.11,8,2,13,0.07
2013-1-9,44.4,42.2,41.2,40.7,39.0,36.6,92,89,83,30.14,29.83,10,3,17,0.00
2013-1-10,40.6,38.5,36.8,37.0,34.7,31.9,92,86,79,29.82,29.65,16,5,21,0.09
2013-1-11,35.2,30.0,27.3,32.2,25.3,20.4,95,83,75,29.97,29.66,13,4,18,0.02
2013-1-12,31.3,27.4,24.0,23.4,21.2,18.3,85,77,69,30.04,29.95,8,3,11,0.01
2013-1-13,28.1,26.4,25.0,23.2,21.7,19.9,86,82,75,30.04,30.01,6,2,9,0.00
2013-1-14,28.0,25.5,19.7,26.1,23.0,18.0,94,90,85,30.01,29.85,9,2,11,0.00
2013-1-15,27.7,23.4,14.9,24.8,21.2,13.0,94,91,87,29.89,29.71,6,1,7,0.00
2013-1-16,28.7,27.5,26.4,26.7,25.0,24.2,93,90,87,29.73,29.68,4,0,6,0.00
2013-1-17,29.7,27.4,25.6,25.9,24.0,22.1,91,87,82,29.86,29.69,6,2,9,0.00
2013-1-18,25.5,22.7,21.3,23.5,19.9,18.6,93,89,85,29.86,29.67,4,1,5,0.00
2013-1-19,22.7,21.0,19.5,19.1,17.4,16.0,90,86,79,29.67,29.51,5,1,8,0.00
2013-1-20,27.5,24.5,21.2,24.8,21.3,18.2,90,88,85,29.53,29.42,7,2,8,0.00
2013-1-21,27.6,25.4,21.8,25.2,23.5,19.3,95,93,89,29.55,29.40,5,1,6,0.00
2013-1-22,22.7,21.0,18.7,19.2,16.8,14.6,90,84,79,29.75,29.56,4,1,5,0.00
2013-1-23,24.1,22.2,20.2,20.5,18.4,16.6,88,85,83,29.77,29.74,4,1,5,0.00
2013-1-24,25.1,23.6,21.3,22.1,20.4,17.5,90,87,85,29.95,29.75,6,1,10,0.00
2013-1-25,23.4,18.2,4.6,19.0,14.7,1.8,89,86,82,30.11,29.95,7,1,10,0.00
2013-1-26,18.9,11.5,1.6,14.0,8.1,-1.0,91,86,80,30.07,29.98,10,1,10,0.00
2013-1-27,31.4,25.5,17.3,29.0,22.1,14.0,94,87,83,29.99,29.71,7,1,11,0.00
2013-1-28,38.4,33.9,28.7,33.5,31.3,26.6,95,90,82,30.03,29.72,11,2,11,0.24
2013-1-29,42.9,39.3,33.8,39.9,36.0,32.2,94,88,82,30.02,29.81,16,5,25,0.15
2013-1-30,55.8,48.8,42.3,49.0,44.5,38.0,93,85,72,29.84,29.60,25,7,37,0.30
2013-1-31,48.6,44.7,37.9,39.5,34.8,31.6,92,69,54,29.90,29.71,18,8,30,0.11
2013-2-1,46.1,41.5,38.5,37.1,35.6,33.3,91,80,65,29.77,29.21,16,5,23,0.03
2013-2-2,40.4,38.0,31.5,37.9,32.9,23.1,95,82,68,29.69,29.11,18,4,23,0.06
2013-2-3,38.7,33.5,26.6,31.0,24.9,21.6,89,71,58,29.90,29.70,13,5,23,0.00
2013-2-4,41.9,37.6,33.2,37.8,33.8,30.1,92,86,81,29.75,29.66,17,6,23,0.09
2013-2-5,45.4,40.6,36.8,37.5,34.3,30.2,89,78,66,29.74,29.41,14,5,22,0.00
2013-2-6,41.3,34.3,25.5,30.2,25.5,21.9,90,71,48,29.54,29.43,11,3,16,0.00
2013-2-7,39.9,31.5,24.5,31.1,27.0,22.2,92,84,63,29.76,29.54,9,2,13,0.00
2013-2-8,37.6,31.1,27.4,27.5,25.8,23.7,91,81,58,29.88,29.76,7,2,11,0.00
2013-2-9,33.9,29.8,28.0,26.4,24.1,21.6,90,79,65,30.00,29.88,4,1,9,0.00
2013-2-10,33.9,28.8,26.2,23.8,22.1,19.2,88,76,58,30.00,29.85,6,1,7,0.00
2013-2-11,29.4,26.4,19.9,23.9,21.1,17.1,92,80,71,29.85,29.72,9,3,12,0.00
2013-2-12,29.1,28.5,27.3,27.3,25.3,22.9,94,88,79,29.89,29.70,9,3,11,0.01
2013-2-13,31.5,29.5,28.5,27.7,26.2,25.0,95,88,80,30.27,29.89,8,3,11,0.00
2013-2-14,32.2,29.8,28.1,27.6,26.2,24.9,89,86,82,30.27,30.06,6,1,8,0.01
2013-2-15,34.9,32.1,29.7,30.8,29.2,26.9,93,89,84,30.11,29.99,4,0,5,0.00
2013-2-16,35.1,32.8,30.7,31.8,30.5,29.1,94,92,87,30.20,30.12,4,0,5,0.08
2013-2-17,34.6,32.3,29.0,31.8,30.3,28.0,96,92,84,30.21,30.17,3,0,3,0.02
2013-2-18,35.1,32.8,31.3,31.0,29.5,28.0,95,88,78,30.17,30.03,4,0,5,0.00
2013-2-19,33.6,32.3,30.6,32.0,28.9,26.4,95,88,76,30.03,29.76,16,5,17,0.10
2013-2-20,31.9,29.6,26.0,27.3,25.5,22.7,91,85,74,30.08,29.90,14,5,18,0.02
2013-2-21,27.5,25.0,22.3,23.0,20.8,18.6,93,84,75,30.10,30.04,6,2,9,0.00
2013-2-22,25.5,23.2,19.7,23.7,19.6,15.6,93,86,77,30.04,29.83,9,3,11,0.00
2013-2-23,29.7,26.8,23.3,28.1,24.9,20.8,95,93,89,29.83,29.70,5,1,8,0.01
2013-2-24,39.2,33.1,28.3,34.1,30.9,26.7,96,92,79,29.90,29.71,5,0,7,0.47
2013-2-25,40.5,38.5,36.2,38.6,36.8,34.9,97,94,92,30.21,29.99,4,1,7,0.14
2013-2-26,38.7,36.3,33.1,36.3,34.3,31.7,97,92,86,30.32,30.20,6,1,8,0.00
2013-2-27,38.8,34.9,32.6,34.3,32.5,31.3,96,91,83,30.37,30.32,6,1,7,0.01
2013-2-28,39.5,35.8,32.7,34.0,32.0,31.1,95,86,74,30.35,30.15,7,0,9,0.00
2013-3-1,38.8,35.7,34.0,32.3,30.4,27.9,87,81,73,30.18,30.08,9,3,13,0.00
2013-3-2,42.7,35.3,26.7,29.5,26.6,23.4,88,72,49,30.21,30.07,9,2,14,0.00
2013-3-3,39.7,33.8,26.4,30.5,27.0,23.3,89,76,64,30.18,30.04,12,3,15,0.00
2013-3-4,45.8,35.6,27.2,30.5,27.2,23.5,91,73,47,30.23,30.14,8,1,14,0.00
2013-3-5,50.5,37.5,26.8,34.1,28.6,23.3,88,72,49,30.13,29.83,8,2,12,0.00
2013-3-6,53.8,38.8,25.2,38.0,31.4,22.9,92,76,53,29.83,29.59,6,1,9,0.00
2013-3-7,50.8,43.1,35.5,43.7,39.4,33.4,94,87,74,29.60,29.53,5,0,6,0.01
2013-3-8,48.0,44.1,40.0,43.7,41.7,38.6,96,92,84,29.60,29.56,5,1,7,0.01
2013-3-9,41.2,39.7,37.5,40.0,38.6,36.4,97,96,95,29.60,29.53,3,0,5,0.08
2013-3-10,45.9,44.4,42.9,43.4,42.1,41.2,95,92,86,29.39,29.37,8,1,10,0.02
2013-3-11,45.4,30.2,26.1,41.8,26.5,22.2,94,86,80,29.64,29.38,10,2,17,0.04
2013-3-12,30.3,27.4,25.7,26.1,23.9,21.7,90,87,83,29.64,29.47,6,2,8,0.00
2013-3-13,29.1,25.7,23.8,24.0,21.5,19.0,93,84,75,29.68,29.47,8,2,10,0.00
2013-3-14,23.7,22.9,22.0,19.1,18.7,18.1,85,84,82,29.71,29.68,5,2,9,0.00
2013-3-15,26.5,24.2,22.3,20.5,18.4,17.0,81,78,75,30.03,29.99,6,1,17,0.00
2013-3-16,36.5,25.1,14.5,21.7,17.1,11.8,91,73,39,30.11,29.98,6,1,10,0.02
2013-3-17,42.3,31.9,21.3,23.0,19.7,15.7,80,62,44,29.99,29.64,11,4,19,0.00
2013-3-18,41.4,32.8,27.4,32.6,27.3,22.1,95,81,61,29.64,29.19,9,3,14,0.01
2013-3-19,40.7,35.1,31.5,35.2,32.0,30.2,96,89,78,29.53,29.17,12,2,17,0.29
2013-3-20,48.5,41.0,32.1,38.7,34.1,28.9,90,77,59,29.72,29.53,11,4,18,0.03
2013-3-21,39.8,35.2,29.0,36.7,29.1,22.6,94,79,65,30.02,29.72,18,4,21,0.01
2013-3-22,33.2,29.9,27.8,25.6,23.3,21.1,88,76,64,30.08,30.01,9,4,13,0.00
2013-3-23,30.5,25.4,17.2,21.3,13.9,5.9,77,62,42,30.18,30.07,16,7,18,0.00
2013-3-24,34.4,23.6,14.8,15.0,8.7,4.0,69,54,30,30.18,30.04,16,7,22,0.00
2013-3-25,31.4,26.4,22.1,16.8,14.4,12.7,72,61,47,30.05,29.88,20,8,22,0.00
2013-3-26,33.0,28.5,25.1,13.9,11.8,8.7,61,50,36,29.88,29.80,16,6,21,0.00
2013-3-27,30.5,27.9,24.5,25.8,20.2,13.1,86,73,55,29.88,29.83,10,3,14,0.00
2013-3-28,40.5,33.3,27.6,28.7,26.2,22.7,90,76,59,29.86,29.72,9,2,15,0.00
2013-3-29,44.3,38.0,32.4,32.2,26.3,22.5,82,63,49,29.72,29.64,15,4,24,0.05
2013-3-30,44.3,35.6,27.6,28.7,26.5,23.6,87,71,47,29.68,29.60,9,2,13,0.00
2013-3-31,38.4,33.7,31.2,28.7,26.6,24.1,88,76,61,29.74,29.65,12,3,16,0.00
2013-4-1,39.5,32.9,28.4,27.5,25.0,22.7,86,73,54,29.84,29.72,10,3,13,0.00
2013-4-2,40.2,33.8,28.6,27.5,25.5,23.3,87,72,56,29.90,29.81,11,4,16,0.00
2013-4-3,38.6,33.8,29.4,27.3,25.5,24.1,82,72,58,29.92,29.88,12,3,14,0.00
2013-4-4,41.0,34.7,30.9,29.9,28.3,26.5,85,78,64,29.90,29.79,8,2,10,0.00
2013-4-5,38.7,35.4,33.0,31.6,30.3,29.2,87,82,75,29.80,29.68,7,2,9,0.00
2013-4-6,39.9,36.7,34.5,32.9,31.3,30.2,87,81,72,30.08,29.80,9,3,12,0.00
2013-4-7,41.5,36.5,27.5,31.8,29.4,23.7,87,76,54,30.10,30.00,8,2,11,0.00
2013-4-8,48.3,36.7,20.7,31.0,24.8,18.4,92,66,40,30.00,29.67,12,3,17,0.00
2013-4-9,52.2,43.3,35.3,40.3,34.0,27.8,90,70,57,29.68,29.59,9,2,20,0.06
2013-4-10,55.0,46.8,37.0,43.6,40.1,34.7,93,78,57,29.78,29.60,17,4,26,0.02
2013-4-11,59.4,50.7,43.6,48.0,42.1,37.9,82,73,53,29.78,29.56,18,4,29,0.02
2013-4-12,60.4,52.6,45.2,50.7,45.4,39.1,94,78,56,29.74,29.48,23,4,32,0.15
2013-4-13,59.7,51.9,44.9,42.6,40.1,36.8,84,65,45,30.19,29.73,21,6,29,0.00
2013-4-14,66.2,51.2,34.7,42.4,38.8,32.7,93,66,37,30.31,30.19,10,1,14,0.00
2013-4-15,69.7,54.2,38.5,44.3,39.0,35.9,92,61,31,30.26,30.08,10,1,13,0.00
2013-4-16,71.0,61.3,47.5,49.1,43.2,35.7,73,53,38,30.11,30.03,9,2,15,0.01
2013-4-17,72.8,62.5,52.6,53.3,49.4,46.3,86,65,40,30.15,30.07,7,1,11,0.00
2013-4-18,80.1,70.2,50.8,53.0,49.9,45.8,84,51,34,30.07,29.86,11,3,19,0.00
2013-4-19,63.4,57.5,48.6,55.6,43.9,34.3,89,62,41,30.17,29.93,10,2,14,0.12
2013-4-20,52.4,47.8,44.5,45.0,41.7,39.4,90,80,64,30.25,30.17,9,3,13,0.11
2013-4-21,67.6,53.2,41.3,49.7,43.5,37.0,86,71,52,30.20,29.87,12,3,17,0.00
2013-4-22,71.7,56.7,42.0,52.2,47.3,39.2,91,73,48,29.96,29.85,8,1,11,0.01
2013-4-23,69.7,59.0,46.8,50.3,45.1,41.3,94,64,38,30.14,29.96,20,4,25,0.00
2013-4-24,73.4,58.7,43.1,44.2,41.8,38.9,87,57,31,30.26,30.14,11,2,24,0.00
2013-4-25,78.2,69.3,54.2,49.3,47.5,45.4,78,48,33,30.21,30.04,11,2,12,0.00
2013-4-26,81.7,66.5,48.2,54.1,46.9,40.9,87,55,24,30.04,29.49,13,2,18,0.00
2013-4-27,66.1,58.1,48.3,55.1,51.0,45.5,93,78,62,29.65,29.48,17,3,33,0.28
2013-4-28,53.6,47.0,43.1,45.4,42.3,39.0,94,84,68,29.98,29.60,10,3,15,0.20
2013-4-29,58.4,52.4,46.7,49.2,46.5,42.7,90,81,69,30.09,29.91,12,2,12,0.00
2013-4-30,63.8,54.8,48.0,51.4,47.8,45.4,91,78,63,30.09,29.98,9,2,12,0.00
2013-5-1,58.2,53.2,48.2,50.3,47.4,44.2,90,81,74,30.18,30.03,9,3,11,0.00
2013-5-2,62.6,54.3,47.6,55.4,50.5,46.2,96,87,76,30.10,29.92,10,1,11,0.16
2013-5-3,54.3,52.1,48.4,51.2,48.9,44.7,95,89,79,29.94,29.87,8,2,14,0.16
2013-5-4,66.8,54.4,45.2,53.4,48.8,43.2,94,82,59,30.05,29.93,10,1,10,0.12
2013-5-5,66.7,55.8,48.1,57.1,51.3,46.0,95,85,64,30.17,30.05,6,1,11,0.09
2013-5-6,66.4,56.9,46.4,58.9,53.1,45.0,96,88,75,30.14,29.94,10,2,13,0.02
2013-5-7,72.9,63.4,55.7,61.1,57.4,53.9,95,82,60,29.95,29.85,10,2,14,0.02
2013-5-8,78.0,61.5,54.6,61.1,56.4,53.1,96,85,54,29.92,29.86,6,1,8,0.00
2013-5-9,77.7,65.3,50.7,60.9,54.8,49.1,95,72,43,29.90,29.80,7,1,11,0.00
2013-5-10,61.3,57.2,53.2,58.0,55.1,51.8,96,93,83,29.93,29.76,10,2,15,0.74
2013-5-11,56.8,53.0,50.7,52.4,50.4,49.2,97,91,77,29.93,29.89,4,0,7,0.06
2013-5-12,68.8,55.8,48.7,50.2,46.0,39.3,92,72,40,29.96,29.79,19,4,23,0.03
2013-5-13,62.4,51.4,42.0,46.0,41.3,36.7,87,70,41,30.00,29.92,18,5,23,0.01
2013-5-14,68.1,58.7,50.3,49.0,45.5,41.4,86,64,39,29.92,29.77,11,3,19,0.00
2013-5-16,76.1,70.8,64.8,53.5,51.3,48.3,64,51,40,29.46,29.39,15,4,22,0.01
2013-5-17,76.2,65.6,55.4,57.4,53.9,50.3,85,67,46,29.47,29.41,14,4,20,0.00
2013-5-18,70.1,60.3,52.6,55.9,51.3,47.4,92,74,46,29.78,29.47,17,4,25,0.17
2013-5-19,76.0,61.6,47.0,58.1,52.2,45.2,94,74,49,29.76,29.54,18,4,29,0.09
2013-5-20,69.1,59.3,49.9,50.3,45.1,40.5,86,62,37,29.82,29.68,14,5,21,0.00
2013-5-21,71.0,59.9,46.3,46.3,43.9,40.3,86,58,35,29.85,29.71,14,3,22,0.00
2013-5-22,65.3,53.8,46.3,51.3,45.2,40.3,89,74,50,29.77,29.58,16,5,24,0.09
2013-5-23,55.8,49.4,41.2,41.3,37.8,35.4,88,65,49,29.77,29.65,9,2,15,0.00
2013-5-24,57.3,48.5,37.0,43.2,40.0,34.6,93,74,45,29.78,29.66,10,2,14,0.00
2013-5-25,56.3,48.5,44.0,48.9,43.2,39.7,92,82,60,29.78,29.72,10,3,18,0.15
2013-5-26,50.3,46.0,42.8,44.6,41.8,40.2,92,86,73,29.73,29.61,25,6,28,0.20
2013-5-27,55.8,49.9,43.6,49.7,46.2,41.4,94,88,75,29.74,29.57,16,5,18,0.29
2013-5-28,68.4,55.5,44.3,52.2,47.2,42.3,94,76,42,29.74,29.48,11,3,16,0.00
2013-5-29,64.3,55.9,45.9,57.3,50.9,44.7,97,84,70,29.59,29.44,12,2,14,0.09
2013-5-30,54.2,51.1,48.8,50.8,48.8,47.4,96,92,83,29.60,29.38,10,4,16,0.69
2013-5-31,60.3,53.7,46.4,53.8,50.1,44.2,97,88,65,29.60,29.35,11,1,15,0.15
2013-6-1,58.0,50.9,43.9,56.8,49.3,42.2,97,94,89,29.67,29.58,13,3,19,0.54
2013-6-2,58.0,52.8,49.3,56.8,50.9,47.3,96,93,85,29.97,29.60,16,5,22,1.05
2013-6-3,50.8,48.7,46.4,48.8,46.7,44.9,95,93,89,30.06,29.97,14,5,16,0.50
2013-6-4,62.5,55.3,50.1,53.0,50.5,47.2,93,84,69,30.04,29.97,11,4,15,0.03
2013-6-5,67.3,58.0,47.9,53.1,48.8,44.2,90,73,48,30.05,30.00,10,3,14,0.00
2013-6-6,67.8,59.0,52.3,56.8,53.2,49.9,93,82,65,30.10,30.04,4,1,8,0.00
2013-6-7,71.6,62.3,49.7,59.8,55.5,48.3,96,80,62,30.08,29.99,8,1,11,0.00
2013-6-8,77.6,66.6,52.5,61.8,57.2,51.0,95,74,45,30.01,29.82,8,1,12,0.00
2013-6-9,78.6,64.5,55.4,64.0,58.2,53.7,96,82,51,29.82,29.62,14,2,32,0.53
2013-6-10,62.8,59.4,57.2,58.9,56.7,52.1,96,91,81,29.79,29.62,7,1,10,0.47
2013-6-11,71.0,63.9,53.4,53.5,48.0,42.4,89,59,38,29.99,29.79,17,3,18,0.01
2013-6-12,74.6,61.7,47.6,53.0,48.0,43.6,95,66,34,30.07,30.00,6,1,10,0.00
2013-6-13,82.0,75.0,66.7,56.2,54.4,51.6,64,50,38,30.05,29.84,10,2,13,0.00
2013-6-14,72.0,64.5,57.6,56.6,52.3,47.0,91,66,43,30.06,29.84,14,3,18,0.05
2013-6-15,81.1,65.5,49.6,60.0,53.9,47.6,94,69,36,30.00,29.86,14,2,17,0.00
2013-6-16,81.5,70.5,58.2,57.6,53.6,47.8,89,59,34,29.98,29.89,14,3,19,0.00
2013-6-17,85.6,72.0,57.2,65.7,60.1,53.7,91,68,46,29.98,29.87,10,2,12,0.00
2013-6-18,96.7,80.0,63.1,74.2,67.7,60.7,93,68,39,29.94,29.86,10,1,10,0.00
2013-6-19,90.6,79.3,66.5,74.8,69.1,64.4,94,73,48,29.94,29.82,13,2,14,0.00
2013-6-20,91.7,79.9,68.5,74.4,69.2,62.7,90,72,50,29.83,29.66,13,2,27,0.00
2013-6-21,81.6,73.2,64.7,62.5,59.4,56.5,90,64,44,29.94,29.75,18,4,26,0.08
2013-6-22,79.7,71.8,65.2,63.5,58.3,54.1,92,64,46,29.96,29.85,8,2,10,0.24
2013-6-23,79.1,71.0,62.6,63.4,57.6,49.4,92,64,43,29.89,29.81,14,4,24,0.08
2013-6-24,66.9,57.8,54.2,55.3,51.9,45.5,94,82,53,30.00,29.89,15,3,19,0.54
2013-6-25,55.7,54.2,51.8,53.8,51.6,48.0,95,91,84,30.09,29.93,15,6,22,0.88
2013-6-26,56.8,53.0,50.9,49.2,46.5,41.9,90,79,61,30.21,30.07,14,5,23,0.04
2013-6-27,64.5,56.4,48.0,48.0,45.5,42.5,91,68,46,30.21,30.12,7,2,11,0.00
2013-6-28,69.7,58.6,43.4,51.1,46.3,41.7,95,67,40,30.13,30.01,8,1,11,0.00
2013-6-29,72.8,60.6,47.8,53.7,49.1,45.0,92,68,42,30.04,29.92,13,4,22,0.00
2013-6-30,65.5,58.3,51.5,54.1,45.9,40.3,91,65,43,30.13,30.01,14,3,18,0.02
2013-7-1,77.8,66.3,55.1,53.7,48.9,46.1,80,56,35,30.08,29.95,11,3,16,0.00
2013-7-2,84.0,69.5,51.7,59.0,53.4,48.7,91,61,32,29.97,29.85,10,1,13,0.00
2013-7-3,79.3,66.4,57.7,67.5,59.2,54.2,94,79,58,29.91,29.79,19,2,28,0.70
2013-7-4,77.8,70.0,60.8,62.9,60.6,58.7,95,74,54,30.14,29.90,10,2,11,0.02
2013-7-5,75.7,67.9,59.6,62.8,60.4,57.3,93,78,61,30.28,30.14,10,1,15,0.00
2013-7-6,75.4,68.2,59.0,63.5,60.0,56.0,92,76,57,30.30,30.24,8,2,11,0.00
2013-7-7,78.1,69.2,55.8,60.4,55.8,51.4,94,65,41,30.32,30.26,7,2,11,0.00
2013-7-8,77.2,68.3,55.1,58.9,55.2,52.2,92,65,43,30.33,30.23,9,1,11,0.00
2013-7-9,80.3,71.1,55.1,60.5,57.0,53.1,94,64,43,30.26,30.02,9,1,10,0.00
2013-7-10,82.7,70.4,57.1,59.8,56.6,53.3,93,65,38,30.02,29.84,8,2,14,0.00
2013-7-11,65.6,61.3,56.1,54.4,51.1,49.0,78,69,60,30.00,29.91,13,4,17,0.00
2013-7-12,72.2,64.1,56.0,55.0,51.7,50.1,87,65,48,30.05,29.99,13,4,18,0.00
2013-7-13,75.2,65.7,54.3,55.1,52.0,48.2,91,63,42,30.05,30.01,8,2,12,0.00
2013-7-14,77.8,67.4,55.2,57.3,53.6,50.2,84,63,42,30.07,30.00,9,2,15,0.00
2013-7-15,72.8,65.1,55.3,57.5,52.4,49.1,84,65,46,30.14,30.03,10,2,14,0.00
2013-7-16,79.4,66.7,49.5,55.7,51.5,47.1,92,62,36,30.18,30.09,7,1,11,0.00
2013-7-17,83.8,69.5,53.3,58.6,54.2,49.9,91,62,34,30.13,30.07,8,1,11,0.00
2013-7-18,82.8,76.0,59.8,59.3,56.3,52.7,83,52,38,30.13,30.04,8,2,11,0.00
2013-7-19,83.8,72.5,58.2,61.0,56.8,53.5,91,61,37,30.09,29.96,8,1,13,0.00
2013-7-20,78.7,70.3,61.3,59.5,55.5,52.1,78,61,42,30.06,30.00,9,2,14,0.00
2013-7-21,81.1,69.6,53.7,57.8,53.4,50.1,92,60,36,30.12,30.04,8,1,11,0.00
2013-7-22,86.9,72.6,54.1,57.1,52.4,43.4,90,55,24,30.06,29.89,8,1,10,0.00
2013-7-23,88.6,74.3,55.7,57.8,52.7,44.4,87,52,23,29.90,29.83,9,1,11,0.00
2013-7-24,89.3,74.0,54.2,62.2,53.4,47.0,88,53,25,29.92,29.82,11,1,18,0.02
2013-7-25,83.4,72.6,65.2,65.5,63.2,61.0,95,74,49,29.94,29.90,9,2,13,0.26
2013-7-26,89.7,75.7,61.0,65.3,62.0,58.7,93,66,37,29.95,29.84,5,1,8,0.00
2013-7-27,96.9,81.6,63.8,65.9,61.6,57.1,92,56,28,29.86,29.71,8,1,15,0.00
2013-7-28,97.2,84.3,66.4,66.4,62.6,58.8,84,52,29,29.81,29.71,8,1,11,0.00
2013-7-29,88.5,76.3,64.3,68.1,64.6,61.4,94,70,43,29.86,29.64,14,4,29,1.24
2013-7-30,79.5,69.2,62.0,63.7,58.6,51.9,94,71,45,30.01,29.82,16,5,28,0.18
2013-7-31,79.1,70.8,62.8,61.3,58.6,56.1,84,66,49,30.05,29.97,13,4,22,0.00
2013-8-1,85.1,71.4,57.6,61.5,58.6,55.5,94,68,39,30.06,29.95,6,1,12,0.00
2013-8-2,93.4,75.6,59.0,64.2,60.0,55.3,93,63,30,29.98,29.87,6,1,9,0.00
2013-8-3,99.9,81.1,62.3,66.8,61.9,54.8,88,56,24,29.97,29.87,7,1,10,0.00
2013-8-4,84.0,73.3,63.3,67.2,64.2,60.1,92,75,54,30.11,29.95,24,3,35,0.65
2013-8-5,81.9,69.7,58.3,66.8,62.3,56.8,96,79,57,30.09,29.94,6,1,9,0.01
2013-8-6,91.1,77.5,62.0,68.2,64.4,59.9,94,67,43,29.94,29.78,30,2,43,0.26
2013-8-7,84.6,73.3,63.4,68.3,64.4,59.8,93,76,53,29.95,29.76,11,2,27,0.23
2013-8-8,87.0,77.2,66.7,68.7,64.4,58.3,82,65,52,29.94,29.71,9,2,12,0.00
2013-8-9,71.6,64.5,57.1,63.7,58.9,54.7,93,83,67,30.05,29.94,9,3,12,0.21
2013-8-10,78.9,64.7,54.6,59.6,55.7,52.5,94,75,41,30.06,29.96,9,2,21,0.09
2013-8-11,75.3,63.7,54.1,60.1,55.0,51.7,96,76,49,30.01,29.94,8,1,14,0.01
2013-8-12,79.7,66.7,48.2,58.0,51.2,44.7,95,62,33,30.03,29.83,7,1,11,0.00
2013-8-13,73.9,65.4,59.1,56.9,51.2,43.6,84,62,34,30.04,29.82,17,3,19,0.00
2013-8-14,70.8,62.6,51.7,49.2,46.7,42.7,82,58,38,30.16,30.03,12,3,14,0.00
2013-8-15,74.8,61.1,45.3,49.7,44.6,38.8,93,60,29,30.21,30.12,6,1,10,0.00
2013-8-16,78.3,64.2,47.3,51.8,47.4,42.8,90,59,30,30.15,30.00,8,1,11,0.00
2013-8-17,85.3,67.8,49.2,57.0,51.1,46.3,90,60,28,30.01,29.89,9,1,11,0.00
2013-8-18,90.5,74.0,56.2,60.1,56.5,52.6,88,59,30,29.93,29.84,14,2,15,0.00
2013-8-19,75.6,65.7,61.1,63.7,60.0,57.5,94,83,62,30.02,29.88,10,1,23,0.26
2013-8-20,67.2,59.7,52.1,58.6,54.4,50.4,94,83,60,30.29,30.02,9,2,18,0.04
2013-8-21,73.8,59.8,47.6,56.0,49.9,45.4,96,73,39,30.29,30.16,6,1,10,0.01
2013-8-22,73.3,59.0,46.3,55.6,50.3,44.6,95,75,46,30.17,30.05,5,1,9,0.00
2013-8-23,72.7,61.2,47.9,55.0,51.2,45.9,94,72,46,30.07,29.98,8,2,15,0.00
2013-8-24,74.8,64.6,52.3,56.3,53.3,49.7,93,69,47,30.01,29.82,11,2,14,0.00
2013-8-25,62.7,59.2,57.3,56.6,54.0,51.3,95,83,71,29.85,29.79,11,3,15,0.32
2013-8-26,64.1,59.6,56.6,56.8,54.9,51.6,95,85,66,29.94,29.84,9,2,12,0.14
2013-8-27,62.2,58.2,55.8,55.1,52.8,51.3,94,83,70,29.94,29.89,6,2,10,0.08
2013-8-28,68.4,60.0,54.4,59.6,55.4,52.1,96,86,62,30.04,29.88,7,1,10,0.19
2013-8-29,76.8,59.6,47.4,57.5,51.7,46.0,96,78,39,30.12,30.04,10,1,14,0.02
2013-8-30,77.4,62.7,47.8,55.1,50.9,46.4,96,70,38,30.11,30.01,7,1,10,0.01
2013-8-31,80.9,66.7,52.9,56.8,53.6,50.6,93,66,36,30.03,29.96,10,2,17,0.00
2013-9-1,67.3,59.7,52.4,57.4,47.8,40.4,93,67,40,30.16,30.02,11,3,18,0.12
2013-9-2,68.4,58.1,51.6,54.0,48.2,43.9,85,70,49,30.16,30.06,18,5,27,0.02
2013-9-3,68.1,63.8,60.1,58.7,56.4,54.1,83,77,70,30.18,30.05,14,6,19,0.01
2013-9-4,73.3,67.7,57.4,61.5,58.5,54.7,91,73,60,30.23,30.11,5,1,9,0.00
2013-9-5,75.6,63.2,52.3,61.8,55.8,50.6,96,79,53,30.12,29.96,5,1,8,0.00
2013-9-6,76.1,66.6,55.5,55.4,53.8,51.3,86,65,44,29.95,29.87,6,1,12,0.00
2013-9-7,78.5,63.9,50.4,58.4,53.0,48.1,93,71,44,30.04,29.95,11,1,13,0.00
2013-9-8,81.1,65.8,49.9,61.3,54.1,47.0,91,68,45,30.06,29.91,11,2,14,0.00
2013-9-9,70.2,61.9,50.1,59.1,53.3,45.4,94,75,46,30.02,29.78,19,4,24,0.61
2013-9-10,66.8,54.7,46.0,54.9,49.6,43.8,93,84,53,30.02,29.86,12,2,17,0.20
2013-9-11,64.4,56.4,50.9,49.8,47.7,45.7,90,74,53,29.95,29.85,12,4,21,0.00
2013-9-12,63.4,55.4,51.8,50.8,48.8,47.2,93,79,59,29.94,29.82,13,2,13,0.09
2013-9-13,64.8,56.7,51.4,53.8,51.0,49.4,94,82,60,30.01,29.94,10,3,13,0.08
2013-9-14,72.9,62.1,54.9,54.9,51.5,48.3,85,70,44,29.97,29.83,17,5,18,0.00
2013-9-15,70.6,62.1,57.4,60.1,56.9,53.9,94,84,64,29.85,29.66,9,2,13,0.43
2013-9-16,60.8,57.1,54.4,57.5,53.7,51.3,95,88,71,29.67,29.46,13,3,20,0.14
2013-9-17,59.1,51.2,46.1,52.4,44.3,37.5,93,78,45,29.64,29.44,14,4,25,0.05
2013-9-18,57.2,49.8,42.6,54.5,46.5,39.2,93,89,82,29.62,29.38,11,2,16,0.19
2013-9-19,61.3,52.6,46.1,50.1,44.7,41.8,90,75,56,29.89,29.55,14,4,21,0.01
2013-9-20,61.0,54.0,48.3,54.0,49.5,43.6,91,85,75,30.00,29.86,8,3,18,0.15
2013-9-26,66.2,54.2,47.3,56.6,49.0,43.7,91,83,60,30.01,29.75,18,3,25,0.06
2013-9-27,55.8,46.0,36.2,44.7,40.4,34.6,95,82,60,30.06,29.98,5,1,10,0.00
2013-9-28,58.4,45.1,33.3,44.6,38.7,31.7,96,80,54,30.01,29.92,5,1,8,0.00
2013-9-29,58.1,47.4,36.1,43.3,39.8,34.5,95,77,52,29.98,29.88,15,4,19,0.01
2013-9-30,57.5,46.9,38.2,40.3,38.2,35.2,91,74,49,29.90,29.82,12,4,17,0.00
2013-10-1,55.2,41.7,30.1,39.2,34.0,28.0,94,76,47,30.05,29.87,9,1,15,0.01
2013-10-2,52.4,40.5,28.8,39.1,32.1,27.0,94,74,45,30.33,30.05,9,1,14,0.00
2013-10-3,52.6,39.9,28.3,36.0,31.0,26.2,93,73,46,30.37,30.29,11,2,15,0.00
2013-10-4,58.2,42.7,30.9,34.6,30.9,28.0,90,67,35,30.34,30.19,8,2,13,0.00
2013-10-5,58.8,44.6,32.3,40.5,35.2,29.0,89,71,46,30.18,30.01,10,2,12,0.00
2013-10-6,58.6,47.1,39.3,44.3,40.4,36.8,92,79,57,30.27,30.07,4,0,5,0.00
2013-10-7,56.5,48.3,40.2,47.8,43.5,38.0,93,84,67,30.33,30.27,5,0,5,0.00
2013-10-8,62.0,48.0,36.9,50.0,43.1,35.0,96,85,58,30.28,30.15,5,0,8,0.01
2013-10-9,57.6,49.0,39.3,49.5,44.9,37.7,96,86,73,30.17,29.86,8,2,11,0.00
2013-10-10,64.7,54.9,46.7,51.8,48.1,45.0,95,79,58,29.86,29.59,13,3,18,0.64
2013-10-11,57.7,48.2,43.6,55.3,46.5,41.4,96,94,89,30.06,29.74,13,2,20,0.19
2013-10-12,55.9,47.9,41.3,53.2,46.0,39.7,95,94,89,30.07,29.94,7,1,10,0.03
2013-10-13,59.1,48.6,38.7,47.2,43.3,36.8,96,83,57,30.13,29.99,10,2,17,0.01
2013-10-14,55.4,44.2,34.3,49.7,41.5,33.0,96,90,77,30.15,30.02,5,0,6,0.00
2013-10-15,58.1,48.8,40.3,49.8,44.8,38.7,96,87,71,30.02,29.69,14,2,18,0.02
2013-10-16,53.4,47.8,40.0,47.4,43.4,37.9,94,85,72,29.95,29.68,10,3,16,0.02
2013-10-17,59.3,47.5,35.2,49.3,42.8,33.8,96,85,66,29.95,29.81,22,4,26,0.06
2013-10-18,55.2,51.3,41.3,48.6,43.3,38.5,90,75,63,30.11,29.81,17,5,25,0.03
2013-10-19,60.9,45.0,32.2,46.8,39.5,30.6,96,83,57,30.11,29.97,8,1,13,0.00
2013-10-20,63.8,51.9,39.5,54.5,47.8,37.9,96,87,67,30.02,29.95,6,1,10,0.25
2013-10-21,69.3,59.0,51.3,56.2,53.5,49.1,95,83,61,30.01,29.96,10,2,17,0.01
2013-10-22,68.9,54.6,45.2,59.5,50.9,43.8,96,88,71,30.00,29.88,8,1,10,0.00
2013-10-23,66.9,57.0,48.3,57.5,52.9,46.7,97,87,69,29.92,29.80,5,0,7,0.01
2013-10-24,68.6,58.6,48.8,55.1,51.8,46.4,93,79,55,30.09,29.91,14,2,18,0.02
2013-10-25,57.4,49.7,41.6,53.4,47.6,40.2,96,93,86,30.09,30.00,4,0,6,0.01
2013-10-26,70.8,57.8,47.2,57.9,52.4,46.1,97,84,62,30.01,29.94,10,1,12,0.00
2013-10-27,68.3,59.0,49.7,54.9,49.6,44.9,96,73,52,29.93,29.71,19,4,28,0.00
2013-10-28,74.6,62.2,54.2,52.2,48.7,45.0,74,62,35,29.84,29.58,16,4,22,0.00
2013-10-29,62.5,55.6,50.1,48.2,45.0,43.1,80,68,58,30.02,29.75,19,5,25,0.00
2013-10-30,58.7,49.2,35.0,44.4,39.2,31.5,87,70,45,30.31,30.02,17,3,18,0.00
2013-10-31,52.6,38.4,29.9,40.6,33.5,28.0,94,84,58,30.34,30.15,5,0,8,0.00
2013-11-1,52.2,42.0,31.7,43.6,38.0,29.9,95,86,69,30.16,29.93,9,1,12,0.01
2013-11-2,58.3,49.2,38.9,52.5,45.6,37.3,95,88,79,29.93,29.64,16,3,20,0.02
2013-11-3,56.7,51.0,44.5,51.4,45.2,37.7,91,81,72,29.73,29.52,21,4,26,0.10
2013-11-4,55.0,49.1,42.5,43.0,39.1,35.2,79,69,49,29.72,29.26,15,4,23,0.00
2013-11-5,52.4,45.5,39.0,44.1,38.4,32.0,90,76,66,29.50,29.27,17,4,17,0.02
2013-11-6,51.7,45.5,39.0,44.2,39.1,31.8,92,79,61,29.70,29.36,16,5,27,0.16
2013-11-7,62.9,55.2,46.2,52.0,49.3,44.0,95,81,67,29.82,29.65,19,5,27,0.06
2013-11-8,64.1,56.7,52.7,51.4,49.2,46.7,92,77,61,29.81,29.69,16,3,24,0.01
2013-11-9,55.3,50.3,42.0,50.2,44.6,37.2,91,81,69,29.86,29.67,13,3,20,0.10
2013-11-10,50.7,43.0,35.2,42.9,38.5,32.8,93,85,67,29.96,29.58,10,2,16,0.28
2013-11-11,45.1,42.2,40.1,39.1,37.1,34.5,89,82,75,30.44,29.97,8,2,9,0.01
2013-11-12,44.9,37.7,29.5,36.0,32.4,27.1,93,82,67,30.43,30.21,5,0,7,0.00
2013-11-13,43.2,35.9,29.7,38.8,33.1,28.1,95,90,83,30.39,30.22,7,1,13,0.01
2013-11-14,35.9,32.7,27.2,34.0,31.1,25.7,96,94,92,30.35,30.09,4,1,7,0.00
2013-11-15,39.8,37.5,35.3,37.6,35.3,33.7,94,92,90,30.37,30.12,4,0,5,0.04
2013-11-16,47.3,40.3,32.3,40.9,37.3,30.7,94,89,77,30.41,30.29,3,0,5,0.00
2013-11-17,38.0,34.8,30.7,37.2,33.7,29.1,97,96,94,30.29,30.09,5,1,8,0.01
2013-11-18,43.6,40.9,37.7,41.8,38.9,36.9,97,93,86,30.09,29.81,5,1,9,0.00
2013-11-19,46.3,44.1,42.3,42.9,40.8,38.8,90,88,86,29.81,29.55,10,2,12,0.00
2013-11-20,44.1,42.1,39.5,42.6,39.4,35.3,96,90,85,29.59,29.46,16,3,20,0.09
2013-11-21,42.6,40.3,37.9,41.1,37.2,34.1,95,89,85,29.58,29.47,7,2,10,0.00
2013-11-22,46.9,43.6,40.3,42.6,40.6,38.4,95,90,77,29.79,29.53,8,2,11,0.01
2013-11-23,46.5,41.8,38.6,41.3,39.0,37.1,95,90,81,29.88,29.78,6,1,11,0.00
2013-11-24,44.0,40.1,33.2,41.6,36.2,26.1,92,86,74,30.06,29.86,11,3,20,0.02
2013-11-25,36.4,32.8,30.6,28.7,26.3,24.0,83,77,70,30.26,30.06,12,5,20,0.00
2013-11-26,35.5,32.2,29.9,28.3,26.9,25.3,86,81,69,30.44,30.25,10,4,15,0.00
2013-11-27,36.4,29.5,23.3,25.8,23.0,20.2,89,77,59,30.49,30.40,9,2,13,0.00
2013-11-28,37.8,35.0,31.1,33.2,29.0,22.4,90,79,69,30.40,30.23,17,5,20,0.01
2013-11-29,41.3,38.0,35.7,34.9,33.6,32.2,90,84,76,30.25,29.77,17,6,27,0.06
2013-11-30,42.8,39.1,36.7,35.7,34.5,33.1,91,84,75,30.21,29.76,16,5,27,0.03
2013-12-1,43.0,39.7,37.4,36.3,34.3,32.4,89,81,70,30.31,30.21,12,4,17,0.00
2013-12-2,42.5,37.1,26.7,37.5,33.2,24.9,94,86,74,30.55,30.31,7,1,10,0.00
2013-12-3,36.1,28.4,24.1,30.8,26.0,22.4,95,91,80,30.54,30.34,5,0,8,0.01
2013-12-4,37.3,29.4,21.8,32.3,26.6,20.0,96,90,80,30.34,30.17,17,3,20,0.00
2013-12-5,41.9,38.3,34.5,36.5,32.5,29.8,89,80,69,30.26,29.57,24,8,37,0.02
2013-12-6,39.8,35.2,30.2,36.2,26.8,22.9,94,72,58,29.90,29.60,27,12,42,0.02
2013-12-7,37.4,34.0,29.6,32.0,28.0,24.6,95,79,68,30.15,29.89,23,9,32,0.02
2013-12-8,43.4,39.8,36.2,37.4,35.2,32.1,89,84,76,30.23,30.13,23,5,29,0.02
2013-12-9,45.8,44.0,42.1,41.0,39.3,36.7,87,84,80,30.37,30.10,22,7,26,0.09
2013-12-10,47.9,45.4,42.9,44.2,41.9,39.5,93,88,83,30.56,30.38,8,2,12,0.00
2013-12-11,44.9,42.6,39.8,41.2,39.2,37.5,92,88,86,30.55,30.49,11,2,12,0.00
2013-12-12,39.8,35.5,32.8,37.6,34.1,31.7,96,95,92,30.50,30.36,5,1,7,0.01
2013-12-13,33.3,32.0,31.0,32.2,30.9,29.9,96,96,96,30.36,30.25,7,1,10,0.00
2013-12-14,38.6,34.7,30.4,35.0,32.0,29.3,96,90,82,30.40,30.24,11,3,14,0.01
2013-12-15,44.0,39.4,37.1,35.8,33.7,30.9,92,80,71,30.44,30.37,15,4,18,0.02
2013-12-16,46.6,34.9,27.4,36.2,30.1,25.3,94,83,58,30.45,30.40,6,0,8,0.00
2013-12-17,37.4,28.7,23.3,31.7,26.4,21.6,95,91,76,30.42,30.35,5,0,5,0.01
2013-12-18,30.8,27.7,22.8,27.1,25.3,21.0,94,91,85,30.36,30.12,4,1,10,0.00
2013-12-19,32.3,30.0,27.5,28.0,26.1,24.2,93,85,80,30.12,29.95,5,1,11,0.00
2013-12-20,37.1,33.4,30.3,34.4,29.9,27.7,91,87,76,30.45,30.06,8,1,12,0.01
2013-12-21,42.7,33.5,27.1,34.2,30.1,25.6,95,88,67,30.50,30.30,11,1,14,0.00
2013-12-22,49.5,39.4,26.1,43.2,34.3,24.6,96,83,71,30.30,30.06,14,3,25,0.01
2013-12-23,51.3,46.9,36.8,41.6,39.4,33.8,91,75,64,30.11,29.91,16,4,26,0.00
2013-12-24,43.7,35.6,28.9,36.6,32.4,26.8,95,88,75,29.91,29.58,9,1,11,0.01
2013-12-25,46.6,37.9,29.6,42.0,35.8,28.3,96,93,84,29.58,29.33,5,0,8,0.00
2013-12-26,53.1,40.7,34.3,44.5,37.8,33.0,96,90,71,29.55,29.25,7,1,11,0.01
2013-12-27,48.7,42.3,33.2,39.8,37.5,30.5,93,84,67,29.79,29.55,11,2,16,0.01
2013-12-28,41.5,33.8,26.1,38.7,31.6,24.6,96,92,84,29.76,29.69,5,0,7,0.01
2013-12-29,46.3,40.5,34.0,38.1,35.1,32.2,95,82,67,30.23,29.74,12,3,21,0.00
2013-12-30,43.6,32.0,23.1,35.9,28.1,21.1,95,86,65,30.37,30.23,8,1,11,0.00
2013-12-31,31.9,26.5,20.0,30.3,24.6,18.0,94,93,92,30.29,30.04,3,0,4,0.01
2014-1-1,39.4,35.0,29.5,33.9,31.7,27.0,95,88,78,30.05,29.90,8,1,12,0.00
2014-1-2,39.4,34.6,28.1,34.9,31.8,25.8,94,90,79,29.89,29.78,3,0,7,0.02